Voltar ao catálogo

SL-12 R/B(2)

AtivoMEO
NORAD 33471·ROCKET BODY·🇷🇺 Russia

Lançado Dec 25, 2008 de Baikonur Cosmodrome

Loading…

Próximas Passagens (próximas 24 horas)

TLE

AtualizadoSource: Space-Track

Época: Sep 9, 2026, 05:30 UTC

1 33471U 08067F   26252.22927872  .00000021  00000-0  00000+0 0  9997
2 33471  64.8731  66.0631 0004118 347.3731  10.6078  2.13248914137886

Acompanhe SL-12 R/B(2) em tempo real com AllMySat

Download on the App Store